[[{"header":{"parameterUnit":"m.s-1","parameterCategory":1,"la1":30.2991,"la2":30.254,"lo1":-89.0895,"lo2":-89.0444,"dy":0.0017,"dx":0.0017,"nx":28,"ny":28,"refTime":"2024-10-06T03:00:00:Z","depth":0,"parameterNumber":2,"parameterNumberName":"U-component_of_WINDS"},"data":[0,0,0,0,0,0,0,0,0,0,0,0,0,0,0,0,0,0,0,0,0,0,0,0,0,0,0,0,0,0,0,0,0,0,0,0,0,0,0,0,0,0,0,0,0,0,0,0,0,0,0,0,0,0,0,0,0,0,-0.6857,-0.6856,0,-0.6827,-0.6826,-0.6826,-0.6768,-0.6767,-0.6766,-0.6765,-0.6736,-0.6737,-0.6737,0,0,0,0,0,0,0,0,0,0,0,0,0,-0.6865,-0.6866,-0.6857,-0.6856,-0.6856,-0.6827,-0.6826,-0.6826,-0.6768,-0.6767,-0.6765,-0.6764,-0.6736,-0.6737,-0.6737,0,0,0,0,0,0,0,0,0,0,0,0,0,-0.6851,-0.6866,-0.6857,-0.6824,-0.682,-0.6827,-0.6826,-0.6826,-0.6768,-0.6767,-0.6765,-0.6763,-0.6736,-0.6737,-0.6737,-0.6774,0,0,-0.6739,-0.6739,0,0,0,0,0,0,0,0,-0.6852,-0.6851,-0.6829,-0.6826,-0.6822,-0.6799,-0.6819,-0.6809,-0.6769,-0.6788,-0.6765,-0.6763,-0.6759,-0.6757,-0.6756,-0.6773,-0.6772,-0.6739,-0.6739,-0.6739,-0.6739,0,0,0,0,0,0,0,-0.6853,-0.6852,-0.6845,-0.6829,-0.6825,-0.6811,-0.6807,-0.6817,-0.6784,-0.6786,-0.6782,-0.6779,-0.6757,-0.6755,-0.6755,-0.6772,-0.6739,-0.6739,-0.6739,-0.674,-0.6817,-0.6819,0,0,0,0,0,0,-0.6859,-0.6853,-0.6846,-0.6844,-0.6833,-0.6812,-0.6807,-0.6808,-0.6783,-0.6778,-0.6781,-0.6777,-0.6755,-0.6754,-0.6753,-0.6794,-0.6739,-0.674,-0.674,-0.6815,-0.6817,-0.6819,0,0,0,0,0,0,-0.6859,-0.6859,-0.6847,-0.6847,-0.6845,-0.6814,-0.6815,-0.6809,-0.6807,-0.6779,-0.6773,-0.6785,-0.6754,-0.6753,-0.6769,-0.6793,-0.674,-0.674,-0.6813,-0.6816,-0.6818,-0.6878,0,0,0,0,0,0,-0.686,-0.6859,-0.6873,-0.6848,-0.6845,-0.6863,-0.6817,-0.6809,-0.6808,-0.6802,-0.6782,-0.6777,-0.6753,-0.6769,-0.677,-0.6792,-0.6741,-0.6811,-0.6814,-0.6818,-0.6874,-0.6882,-0.6889,0,0,0,0,0,-0.686,-0.6892,-0.6874,-0.6873,-0.6861,-0.6865,-0.6863,-0.6834,-0.681,-0.6823,-0.6805,-0.6777,-0.679,-0.6771,-0.6771,-0.6795,-0.6809,-0.6813,-0.6817,-0.687,-0.688,-0.6889,0,0,0,0,0,0,-0.6921,-0.6888,-0.6868,-0.6892,-0.6881,-0.6855,-0.6871,-0.6846,-0.6843,-0.6838,-0.6802,-0.6798,-0.6819,-0.6809,-0.6788,-0.6829,-0.6795,-0.68,-0.6835,-0.6845,-0.6853,-0.6855,-0.6741,0,0,0,0,0,-0.6937,-0.6942,-0.6913,-0.6937,-0.6932,-0.6903,-0.6903,-0.6881,-0.687,-0.6865,-0.6848,-0.6838,-0.684,-0.6842,-0.6842,-0.6872,-0.6866,-0.6888,-0.6896,-0.6903,-0.6907,-0.6921,-0.693,-0.6832,-0.6832,-0.6832,0,0,-0.697,-0.6953,-0.6958,-0.6949,-0.6938,-0.6944,-0.69,-0.6908,-0.6912,-0.6867,-0.6881,-0.6868,-0.6855,-0.6878,-0.6887,-0.687,-0.6932,-0.6908,-0.6913,-0.6913,-0.6926,-0.6935,-0.6943,-0.6835,-0.6835,-0.6834,0,0,-0.7034,-0.7022,-0.704,-0.7029,-0.7013,-0.6993,-0.6998,-0.6975,-0.6964,-0.6977,-0.6943,-0.6948,-0.6952,-0.6943,-0.6939,-0.6999,-0.6973,-0.7,-0.7042,-0.7056,-0.7063,-0.707,-0.7091,-0.7098,-0.7004,-0.7005,-0.7005,0,-0.7078,-0.7085,-0.7052,-0.7063,-0.7059,-0.7017,-0.7035,-0.7027,-0.7013,-0.7011,-0.6992,-0.6995,-0.6983,-0.7003,-0.7017,-0.7016,-0.702,-0.7002,-0.7065,-0.7071,-0.7077,-0.7096,-0.7104,-0.7008,-0.7007,-0.7007,-0.7007,0,-0.7139,-0.7145,-0.7161,-0.7147,-0.7145,-0.716,-0.7129,-0.7132,-0.711,-0.7092,-0.7106,-0.709,-0.7086,-0.7089,-0.7069,-0.7106,-0.7096,-0.7071,-0.7036,-0.709,-0.7107,-0.7115,-0.7013,-0.7011,-0.701,-0.701,0,0,-0.724,-0.7207,-0.7213,-0.7206,-0.7185,-0.7189,-0.7201,-0.7195,-0.7198,-0.7189,-0.7199,-0.7202,-0.7179,-0.7175,-0.7153,-0.7165,-0.7213,-0.7139,-0.7138,-0.7153,-0.7252,-0.727,-0.7279,-0.7195,-0.7197,-0.7198,-0.7253,0,-0.7299,-0.7317,-0.7288,-0.7313,-0.7317,-0.7277,-0.7287,-0.7276,-0.726,-0.7261,-0.7243,-0.7246,-0.7215,-0.7212,-0.7223,-0.7205,-0.7232,-0.72,-0.7204,-0.7204,-0.7207,-0.7288,-0.7308,-0.7361,-0.726,-0.7261,-0.7262,0,-0.737,-0.7363,-0.7388,-0.7364,-0.7365,-0.7375,-0.7367,-0.7369,-0.7355,-0.7343,-0.7337,-0.7311,-0.7322,-0.7288,-0.7302,-0.7281,-0.7281,-0.7272,-0.7274,-0.7272,-0.7236,-0.7289,-0.7377,-0.7385,-0.7272,-0.7271,-0.727,0,-0.744,-0.7437,-0.7452,-0.7447,-0.742,-0.7427,-0.7417,-0.7401,-0.7399,-0.7393,-0.7391,-0.7387,-0.7384,-0.7381,-0.7355,-0.7333,-0.7372,-0.7336,-0.7361,-0.7362,-0.7371,-0.737,-0.7459,-0.7372,-0.7372,-0.7372,-0.7372,0,-0.7508,-0.7525,-0.7483,-0.7492,-0.7509,-0.7475,-0.7494,-0.7479,-0.7465,-0.7471,-0.7436,-0.7442,-0.7407,-0.7409,-0.7389,-0.7403,-0.7402,-0.7392,-0.7386,-0.7395,-0.7396,-0.7394,-0.7389,-0.7374,-0.7373,-0.7373,-0.7373,0,-0.7589,-0.7562,-0.7574,-0.7547,-0.7541,-0.7555,-0.7532,-0.7539,-0.752,-0.7528,-0.7527,-0.7498,-0.7499,-0.7472,-0.7468,-0.7454,-0.7477,-0.7465,-0.7481,-0.7477,-0.7503,-0.7501,-0.7593,-0.7603,-0.751,-0.7511,-0.7512,0,-0.7634,-0.7645,-0.7619,-0.762,-0.761,-0.7612,-0.761,-0.7577,-0.7577,-0.7561,-0.757,-0.7568,-0.7564,-0.7567,-0.7546,-0.7542,-0.753,-0.7562,-0.7529,-0.7537,-0.7529,-0.7528,-0.7529,-0.7569,-0.757,-0.7571,-0.7572,0,-0.7716,-0.7701,-0.7699,-0.7692,-0.7689,-0.7682,-0.7673,-0.7676,-0.764,-0.7641,-0.7641,-0.7638,-0.7633,-0.7631,-0.7623,-0.7613,-0.7587,-0.7583,-0.7588,-0.7596,-0.7605,-0.76,-0.7499,-0.7581,-0.758,-0.7579,-0.7579,-0.7578,-0.7779,-0.7787,-0.777,-0.7768,-0.7757,-0.7749,-0.7754,-0.7736,-0.7735,-0.7727,-0.7708,-0.7711,-0.7696,-0.7683,-0.7675,-0.7677,-0.766,-0.7669,-0.767,-0.7673,-0.7677,-0.7605,-0.7675,-0.7675,-0.7675,-0.7674,-0.7674,0,-0.7858,-0.7845,-0.7844,-0.7831,-0.783,-0.7804,-0.7793,-0.7793,-0.7796,-0.7784,-0.7781,-0.778,-0.7778,-0.7756,-0.7752,-0.7757,-0.7745,-0.7757,-0.7756,-0.7754,-0.7692,-0.7688,-0.7767,-0.7767,-0.7767,-0.7767,-0.7767,-0.7767,-0.7899,-0.7911,-0.7895,-0.7901,-0.7888,-0.7889,-0.7885,-0.7877,-0.7867,-0.7868,-0.7865,-0.7851,-0.7835,-0.7829,-0.7825,-0.7819,-0.7819,-0.7835,-0.7824,-0.7767,-0.7758,-0.775,-0.7745,-0.7835,-0.7835,-0.7885,-0.7886,-0.7886]},{"header":{"parameterUnit":"m.s-1","parameterCategory":1,"la1":30.2991,"la2":30.254,"lo1":-89.0895,"lo2":-89.0444,"dy":0.0017,"dx":0.0017,"nx":28,"ny":28,"refTime":"2024-10-06T03:00:00:Z","depth":0,"parameterNumber":3,"parameterNumberName":"V-component_of_WINDS"},"data":[0,0,0,0,0,0,0,0,0,0,0,0,0,0,0,0,0,0,0,0,0,0,0,0,0,0,0,0,0,0,0,0,0,0,0,0,0,0,0,0,0,0,0,0,0,0,0,0,0,0,0,0,0,0,0,0,0,0,-2.1893,-2.1894,0,-2.194,-2.194,-2.1941,-2.196,-2.196,-2.196,-2.196,-2.2008,-2.201,-2.2011,0,0,0,0,0,0,0,0,0,0,0,0,0,-2.1823,-2.1824,-2.1893,-2.1894,-2.1894,-2.194,-2.194,-2.1941,-2.196,-2.196,-2.196,-2.196,-2.2008,-2.201,-2.2011,0,0,0,0,0,0,0,0,0,0,0,0,0,-2.186,-2.1825,-2.1893,-2.1909,-2.1911,-2.1939,-2.194,-2.1941,-2.1961,-2.196,-2.196,-2.196,-2.2007,-2.2009,-2.2011,-2.2026,0,0,-2.2018,-2.2018,0,0,0,0,0,0,0,0,-2.1858,-2.1862,-2.1906,-2.1908,-2.1911,-2.1944,-2.1933,-2.197,-2.1961,-2.1942,-2.196,-2.196,-2.1987,-2.1991,-2.2,-2.2029,-2.2031,-2.2018,-2.2019,-2.202,-2.202,0,0,0,0,0,0,0,-2.1855,-2.186,-2.1911,-2.1907,-2.191,-2.1915,-2.192,-2.194,-2.1965,-2.1943,-2.1945,-2.195,-2.1988,-2.1998,-2.2001,-2.2031,-2.2018,-2.202,-2.2021,-2.2022,-2.2077,-2.2078,0,0,0,0,0,0,-2.185,-2.1858,-2.191,-2.1913,-2.1883,-2.1917,-2.1922,-2.1933,-2.1964,-2.1969,-2.195,-2.1951,-2.1994,-2.1999,-2.2003,-2.2023,-2.202,-2.2022,-2.2023,-2.2077,-2.2077,-2.2078,0,0,0,0,0,0,-2.1848,-2.1854,-2.1908,-2.1886,-2.1893,-2.1918,-2.193,-2.1934,-2.1944,-2.197,-2.1974,-2.1955,-2.1994,-2.2,-2.2021,-2.2025,-2.2023,-2.2025,-2.2077,-2.2077,-2.2078,-2.2064,0,0,0,0,0,0,-2.1846,-2.1853,-2.1859,-2.1886,-2.1894,-2.1924,-2.1931,-2.1935,-2.1947,-2.1949,-2.1976,-2.198,-2.1995,-2.2018,-2.2023,-2.2028,-2.2026,-2.2076,-2.2077,-2.2077,-2.2064,-2.2064,-2.2064,0,0,0,0,0,-2.1843,-2.1853,-2.1859,-2.1865,-2.1902,-2.1925,-2.193,-2.1946,-2.1948,-2.1954,-2.1971,-2.1979,-2.2024,-2.202,-2.2026,-2.2032,-2.2076,-2.2077,-2.2077,-2.2064,-2.2064,-2.2064,0,0,0,0,0,0,-2.1825,-2.1857,-2.1864,-2.1882,-2.1901,-2.1928,-2.1936,-2.1945,-2.1964,-2.1964,-2.1984,-2.199,-2.201,-2.2023,-2.2017,-2.2049,-2.2051,-2.2053,-2.2039,-2.2039,-2.2039,-2.2035,-2.2028,0,0,0,0,0,-2.1823,-2.1839,-2.1866,-2.188,-2.1889,-2.1911,-2.1921,-2.1933,-2.1953,-2.1961,-2.1979,-2.1999,-2.2017,-2.2029,-2.2048,-2.2067,-2.2074,-2.2074,-2.2074,-2.2074,-2.2075,-2.2087,-2.2088,-2.208,-2.208,-2.208,0,0,-2.1819,-2.1838,-2.1847,-2.1876,-2.1892,-2.1909,-2.1917,-2.1934,-2.1946,-2.1963,-2.1984,-2.1999,-2.2022,-2.2042,-2.2052,-2.2054,-2.2079,-2.2074,-2.2074,-2.2075,-2.2088,-2.2089,-2.2089,-2.208,-2.208,-2.208,0,0,-2.182,-2.1836,-2.185,-2.1866,-2.189,-2.1905,-2.1908,-2.1935,-2.1945,-2.1967,-2.198,-2.1996,-2.2028,-2.2044,-2.2057,-2.2067,-2.2076,-2.2073,-2.2071,-2.2083,-2.2084,-2.2084,-2.2088,-2.209,-2.2074,-2.2074,-2.2074,0,-2.1812,-2.1837,-2.1856,-2.1872,-2.1885,-2.1902,-2.1917,-2.1931,-2.196,-2.1969,-2.1971,-2.2012,-2.2029,-2.2054,-2.2057,-2.2066,-2.2072,-2.2069,-2.2082,-2.2083,-2.2084,-2.2088,-2.2089,-2.2073,-2.2073,-2.2073,-2.2073,0,-2.1826,-2.1844,-2.1852,-2.188,-2.1894,-2.1909,-2.1931,-2.1943,-2.1955,-2.197,-2.1992,-2.2014,-2.2037,-2.2045,-2.2055,-2.2072,-2.2072,-2.2078,-2.208,-2.2084,-2.2088,-2.209,-2.2072,-2.2073,-2.2073,-2.2073,0,0,-2.1815,-2.1854,-2.1857,-2.1871,-2.19,-2.1914,-2.1931,-2.1954,-2.1965,-2.1985,-2.2,-2.2028,-2.2034,-2.2048,-2.2061,-2.2072,-2.208,-2.2076,-2.2077,-2.2076,-2.21,-2.2095,-2.2097,-2.2087,-2.2087,-2.2087,-2.2098,0,-2.182,-2.185,-2.1869,-2.1892,-2.1909,-2.1927,-2.1942,-2.1962,-2.1977,-2.1994,-2.2012,-2.2031,-2.2037,-2.2046,-2.2058,-2.2076,-2.2085,-2.2076,-2.2101,-2.2102,-2.2094,-2.2099,-2.2094,-2.2103,-2.21,-2.2101,-2.2101,0,-2.1829,-2.1849,-2.1874,-2.1903,-2.191,-2.1923,-2.1947,-2.1964,-2.1987,-2.1998,-2.2015,-2.2029,-2.2049,-2.2051,-2.208,-2.2073,-2.2085,-2.2096,-2.2097,-2.2099,-2.2101,-2.2101,-2.2106,-2.2107,-2.2104,-2.2103,-2.2103,0,-2.1818,-2.1852,-2.1871,-2.1882,-2.1916,-2.1925,-2.194,-2.1963,-2.1977,-2.1999,-2.2008,-2.2032,-2.2044,-2.2063,-2.2083,-2.2083,-2.211,-2.2114,-2.212,-2.212,-2.2124,-2.2123,-2.213,-2.2133,-2.2133,-2.2133,-2.2133,0,-2.1821,-2.1836,-2.1867,-2.1879,-2.1897,-2.1918,-2.1935,-2.1952,-2.1973,-2.1989,-2.2007,-2.2022,-2.2048,-2.2067,-2.2083,-2.2105,-2.2111,-2.212,-2.2124,-2.2118,-2.2117,-2.2126,-2.2125,-2.2133,-2.2133,-2.2133,-2.2133,0,-2.1811,-2.1833,-2.1855,-2.1886,-2.1894,-2.1906,-2.1933,-2.1946,-2.1963,-2.1984,-2.199,-2.2017,-2.204,-2.2063,-2.2094,-2.2105,-2.2127,-2.2132,-2.2118,-2.212,-2.2125,-2.2124,-2.2138,-2.2141,-2.2141,-2.2141,-2.2141,0,-2.1811,-2.1823,-2.1855,-2.1867,-2.1882,-2.1901,-2.1915,-2.1938,-2.1953,-2.1982,-2.1992,-2.2016,-2.2037,-2.2074,-2.2097,-2.2121,-2.2127,-2.2131,-2.2131,-2.2125,-2.2127,-2.2126,-2.2128,-2.2129,-2.2129,-2.2129,-2.2129,0,-2.1809,-2.182,-2.1839,-2.1863,-2.188,-2.19,-2.192,-2.193,-2.1957,-2.1973,-2.1996,-2.2013,-2.2045,-2.207,-2.2097,-2.2114,-2.2126,-2.2129,-2.2132,-2.2125,-2.2117,-2.2121,-2.2116,-2.2128,-2.2128,-2.2128,-2.2128,-2.2128,-2.1804,-2.1816,-2.1841,-2.1863,-2.1881,-2.19,-2.1914,-2.1934,-2.1954,-2.1982,-2.1995,-2.2019,-2.2045,-2.2084,-2.21,-2.212,-2.2123,-2.2127,-2.2128,-2.2128,-2.2127,-2.2114,-2.2125,-2.2126,-2.2126,-2.2126,-2.2126,0,-2.1803,-2.182,-2.184,-2.1869,-2.1886,-2.1897,-2.1921,-2.1935,-2.1956,-2.1979,-2.2,-2.2028,-2.2053,-2.2079,-2.2105,-2.2117,-2.2123,-2.2123,-2.2122,-2.2126,-2.2123,-2.2118,-2.2117,-2.2117,-2.2117,-2.2117,-2.2117,-2.2117,-2.1804,-2.1824,-2.1838,-2.1869,-2.1887,-2.191,-2.1923,-2.1942,-2.196,-2.1991,-2.2012,-2.2029,-2.2053,-2.2082,-2.2106,-2.2113,-2.2122,-2.212,-2.2128,-2.2125,-2.2126,-2.2126,-2.2121,-2.2121,-2.2121,-2.2129,-2.2129,-2.2129]}]]